Time,TemperatureF,DewpointF,PressureIn,WindDirection,WindDirectionDegrees,WindSpeedMPH,WindSpeedGustMPH,Humidity,HourlyPrecipIn,Conditions,Clouds,dailyrainin,SoftwareType,DateUTC
2013-08-18 00:14:00,59.0,59.0,30.14,WSW,251,0.0,1.0,99,0.01,,,0.00,weatherlink.com 1.10,2013-08-18 04:14:00,
2013-08-18 00:29:00,59.0,59.0,30.14,WSW,250,0.0,1.0,99,0.00,,,0.00,weatherlink.com 1.10,2013-08-18 04:29:00,
2013-08-18 00:44:00,59.0,59.0,30.14,WSW,251,0.0,1.0,99,0.01,,,0.01,weatherlink.com 1.10,2013-08-18 04:44:00,
2013-08-18 00:59:00,58.4,58.0,30.14,WSW,250,0.0,3.0,99,0.04,,,0.04,weatherlink.com 1.10,2013-08-18 04:59:00,
2013-08-18 01:14:00,58.2,58.0,30.14,WSW,250,2.0,3.0,99,0.05,,,0.05,weatherlink.com 1.10,2013-08-18 05:14:00,
2013-08-18 01:29:00,58.0,58.0,30.14,WSW,251,0.0,3.0,99,0.05,,,0.05,weatherlink.com 1.10,2013-08-18 05:29:00,
2013-08-18 01:44:00,58.3,58.0,30.14,NNW,344,0.0,3.0,99,0.04,,,0.05,weatherlink.com 1.10,2013-08-18 05:44:00,
2013-08-18 01:59:00,58.2,58.0,30.14,West,263,1.0,2.0,100,0.02,,,0.06,weatherlink.com 1.10,2013-08-18 05:59:00,
2013-08-18 02:14:00,58.2,58.0,30.13,West,263,0.0,2.0,100,0.01,,,0.06,weatherlink.com 1.10,2013-08-18 06:14:00,
2013-08-18 02:29:00,58.4,58.0,30.12,WNW,287,0.0,1.0,100,0.01,,,0.06,weatherlink.com 1.10,2013-08-18 06:29:00,
2013-08-18 02:44:00,58.6,58.0,30.12,WNW,287,0.0,0.0,99,0.01,,,0.06,weatherlink.com 1.10,2013-08-18 06:44:00,
2013-08-18 02:59:00,58.3,58.0,30.13,WNW,287,0.0,2.0,100,0.00,,,0.06,weatherlink.com 1.10,2013-08-18 06:59:00,
2013-08-18 03:14:00,58.3,58.0,30.12,WNW,287,0.0,1.0,100,0.00,,,0.06,weatherlink.com 1.10,2013-08-18 07:14:00,
2013-08-18 03:29:00,58.5,58.0,30.12,WNW,287,0.0,2.0,99,0.00,,,0.06,weatherlink.com 1.10,2013-08-18 07:29:00,
2013-08-18 03:44:00,58.5,58.0,30.12,WNW,287,0.0,1.0,99,0.00,,,0.06,weatherlink.com 1.10,2013-08-18 07:44:00,
2013-08-18 03:59:00,58.4,58.0,30.11,WNW,287,0.0,1.0,100,0.00,,,0.06,weatherlink.com 1.10,2013-08-18 07:59:00,
2013-08-18 04:14:00,58.6,58.0,30.11,WNW,287,0.0,0.0,99,0.00,,,0.06,weatherlink.com 1.10,2013-08-18 08:14:00,
2013-08-18 04:29:00,58.6,59.0,30.12,WNW,287,0.0,1.0,100,0.00,,,0.06,weatherlink.com 1.10,2013-08-18 08:29:00,
2013-08-18 04:35:00,58.6,58.6,30.12,WNW,287,0.0,1.0,100,0.00,,,0.06,Wunderground v.1.15,2013-08-18 08:35:00,
2013-08-18 04:45:00,58.5,59.0,30.12,WNW,287,0.0,0.0,100,0.00,,,0.06,weatherlink.com 1.10,2013-08-18 08:45:00,
2013-08-18 04:50:00,58.4,58.4,30.12,NNE,18,0.0,0.0,100,0.00,,,0.06,Wunderground v.1.15,2013-08-18 08:50:00,
2013-08-18 05:00:00,58.4,58.0,30.12,NNE,18,0.0,1.0,100,0.00,,,0.06,weatherlink.com 1.10,2013-08-18 09:00:00,
2013-08-18 05:05:00,58.5,58.5,30.12,NNE,18,0.0,0.0,100,0.00,,,0.06,Wunderground v.1.15,2013-08-18 09:05:00,
2013-08-18 05:10:00,58.5,58.5,30.12,NNE,18,0.0,0.0,100,0.00,,,0.06,Wunderground v.1.15,2013-08-18 09:10:00,
2013-08-18 05:16:00,58.5,59.0,30.12,NNE,18,0.0,1.0,100,0.00,,,0.06,weatherlink.com 1.10,2013-08-18 09:16:00,
2013-08-18 05:25:00,58.3,58.3,30.13,NNE,18,0.0,0.0,100,0.00,,,0.06,Wunderground v.1.15,2013-08-18 09:25:00,
2013-08-18 05:30:00,58.3,58.3,30.14,NNE,18,0.0,0.0,100,0.00,,,0.06,Wunderground v.1.15,2013-08-18 09:30:00,
2013-08-18 05:35:00,58.3,58.3,30.12,NNE,18,0.0,0.0,100,0.00,,,0.06,Wunderground v.1.15,2013-08-18 09:35:00,
2013-08-18 05:45:00,58.5,58.5,30.13,NNE,18,0.0,0.0,100,0.00,,,0.06,Wunderground v.1.15,2013-08-18 09:45:00,
2013-08-18 05:50:00,58.5,58.5,30.14,NNE,18,1.0,1.0,100,0.00,,,0.06,Wunderground v.1.15,2013-08-18 09:50:00,
2013-08-18 06:00:00,58.5,58.5,30.14,NNE,18,0.0,0.0,100,0.00,,,0.06,Wunderground v.1.15,2013-08-18 10:00:00,
2013-08-18 06:10:00,58.6,58.6,30.14,NNE,18,0.0,0.0,100,0.00,,,0.06,Wunderground v.1.15,2013-08-18 10:10:00,
2013-08-18 06:15:00,58.6,58.6,30.13,NNE,18,0.0,0.0,100,0.00,,,0.06,Wunderground v.1.15,2013-08-18 10:15:00,
2013-08-18 06:20:00,58.6,58.6,30.14,NNE,18,0.0,0.0,100,0.00,,,0.06,Wunderground v.1.15,2013-08-18 10:20:00,
2013-08-18 06:30:00,58.6,58.6,30.14,NNE,18,0.0,0.0,100,0.00,,,0.06,Wunderground v.1.15,2013-08-18 10:30:00,
2013-08-18 06:40:00,58.7,58.7,30.14,NNE,18,0.0,0.0,100,0.00,,,0.06,Wunderground v.1.15,2013-08-18 10:40:00,
2013-08-18 06:45:00,58.7,58.7,30.15,NNE,18,0.0,0.0,100,0.00,,,0.06,Wunderground v.1.15,2013-08-18 10:45:00,
2013-08-18 06:50:00,58.7,58.7,30.15,NNE,18,0.0,0.0,100,0.00,,,0.06,Wunderground v.1.15,2013-08-18 10:50:00,
2013-08-18 06:55:00,58.7,58.7,30.15,NNE,18,0.0,0.0,100,0.00,,,0.06,Wunderground v.1.15,2013-08-18 10:55:00,
2013-08-18 07:00:00,58.7,58.7,30.15,NNE,18,0.0,0.0,100,0.00,,,0.07,Wunderground v.1.15,2013-08-18 11:00:00,
2013-08-18 07:10:00,58.7,58.7,30.15,NNE,18,0.0,0.0,100,0.00,,,0.07,Wunderground v.1.15,2013-08-18 11:10:00,
2013-08-18 07:15:00,58.7,58.7,30.15,NNE,18,0.0,0.0,100,0.00,,,0.07,Wunderground v.1.15,2013-08-18 11:15:00,
2013-08-18 07:20:00,58.7,58.7,30.15,NNE,18,0.0,0.0,100,0.00,,,0.07,Wunderground v.1.15,2013-08-18 11:20:00,
2013-08-18 07:30:00,58.8,58.8,30.15,NNE,18,0.0,0.0,100,0.00,,,0.07,Wunderground v.1.15,2013-08-18 11:30:00,
2013-08-18 07:35:00,58.8,58.8,30.15,NNE,18,0.0,0.0,100,0.00,,,0.07,Wunderground v.1.15,2013-08-18 11:35:00,
2013-08-18 07:40:00,58.8,58.8,30.16,NNE,18,0.0,0.0,100,0.00,,,0.07,Wunderground v.1.15,2013-08-18 11:40:00,
2013-08-18 07:47:00,58.8,59.0,30.15,NNE,18,0.0,1.0,100,0.01,,,0.07,weatherlink.com 1.10,2013-08-18 11:47:00,
2013-08-18 07:55:00,58.7,58.7,30.16,NNE,18,0.0,0.0,100,0.00,,,0.08,Wunderground v.1.15,2013-08-18 11:55:00,
2013-08-18 08:00:00,58.7,58.7,30.16,NNE,18,0.0,0.0,100,0.00,,,0.08,Wunderground v.1.15,2013-08-18 12:00:00,
2013-08-18 08:10:00,58.7,58.7,30.16,NNE,18,0.0,0.0,100,0.00,,,0.09,Wunderground v.1.15,2013-08-18 12:10:00,
2013-08-18 08:15:00,58.7,58.7,30.17,NNE,18,0.0,0.0,100,0.11,,,0.10,Wunderground v.1.15,2013-08-18 12:15:00,
2013-08-18 08:20:00,58.7,58.7,30.17,NNE,18,0.0,0.0,100,0.06,,,0.10,Wunderground v.1.15,2013-08-18 12:20:00,
2013-08-18 08:25:00,58.7,58.7,30.17,NNE,18,0.0,0.0,100,0.04,,,0.10,Wunderground v.1.15,2013-08-18 12:25:00,
2013-08-18 08:30:00,58.8,58.8,30.17,NNE,18,0.0,0.0,100,0.04,,,0.11,Wunderground v.1.15,2013-08-18 12:30:00,
2013-08-18 08:40:00,59.0,59.0,30.17,NNE,18,0.0,0.0,100,0.05,,,0.12,Wunderground v.1.15,2013-08-18 12:40:00,
2013-08-18 08:45:00,59.3,59.3,30.17,NNE,18,0.0,0.0,100,0.05,,,0.12,Wunderground v.1.15,2013-08-18 12:45:00,
2013-08-18 08:50:00,59.4,59.4,30.18,NNE,18,0.0,0.0,100,0.05,,,0.12,Wunderground v.1.15,2013-08-18 12:50:00,
2013-08-18 09:00:00,59.5,59.5,30.18,NNE,18,0.0,0.0,100,0.00,,,0.12,Wunderground v.1.15,2013-08-18 13:00:00,
2013-08-18 09:05:00,59.5,59.5,30.18,NNE,18,0.0,0.0,100,0.00,,,0.12,Wunderground v.1.15,2013-08-18 13:05:00,
2013-08-18 09:10:00,59.5,59.5,30.18,NNE,18,0.0,0.0,100,0.00,,,0.12,Wunderground v.1.15,2013-08-18 13:10:00,
2013-08-18 09:18:00,59.6,60.0,30.18,NNE,18,0.0,1.0,100,0.02,,,0.12,weatherlink.com 1.10,2013-08-18 13:18:00,
2013-08-18 09:25:00,59.7,59.7,30.18,NNE,18,0.0,0.0,100,0.00,,,0.12,Wunderground v.1.15,2013-08-18 13:25:00,
2013-08-18 09:30:00,59.8,59.8,30.18,NNE,18,0.0,1.0,100,0.00,,,0.12,Wunderground v.1.15,2013-08-18 13:30:00,
2013-08-18 09:40:00,59.7,59.7,30.18,NNE,18,0.0,0.0,100,0.00,,,0.12,Wunderground v.1.15,2013-08-18 13:40:00,
2013-08-18 09:45:00,59.8,59.8,30.18,NNE,18,0.0,1.0,100,0.00,,,0.12,Wunderground v.1.15,2013-08-18 13:45:00,
2013-08-18 09:50:00,59.8,59.8,30.19,NNE,18,0.0,0.0,100,0.00,,,0.12,Wunderground v.1.15,2013-08-18 13:50:00,
2013-08-18 10:00:00,60.0,60.0,30.19,NNE,18,0.0,0.0,100,0.00,,,0.12,Wunderground v.1.15,2013-08-18 14:00:00,
2013-08-18 10:05:00,60.0,60.0,30.19,NNE,18,1.0,1.0,100,0.00,,,0.12,Wunderground v.1.15,2013-08-18 14:05:00,
2013-08-18 10:10:00,60.0,60.0,30.18,WNW,299,1.0,1.0,100,0.00,,,0.12,Wunderground v.1.15,2013-08-18 14:10:00,
2013-08-18 10:15:00,60.1,60.1,30.18,WNW,299,0.0,1.0,100,0.00,,,0.12,Wunderground v.1.15,2013-08-18 14:15:00,
2013-08-18 10:25:00,60.6,60.6,30.18,North,5,1.0,2.0,100,0.00,,,0.12,Wunderground v.1.15,2013-08-18 14:25:00,
2013-08-18 10:30:00,60.7,60.7,30.18,NE,36,1.0,1.0,100,0.00,,,0.12,Wunderground v.1.15,2013-08-18 14:30:00,
2013-08-18 10:35:00,61.0,61.0,30.19,NW,325,1.0,1.0,100,0.00,,,0.12,Wunderground v.1.15,2013-08-18 14:35:00,
2013-08-18 10:40:00,61.0,61.0,30.19,NE,44,1.0,1.0,100,0.00,,,0.12,Wunderground v.1.15,2013-08-18 14:40:00,
2013-08-18 10:45:00,61.2,61.2,30.19,WSW,252,2.0,2.0,100,0.00,,,0.12,Wunderground v.1.15,2013-08-18 14:45:00,
2013-08-18 10:55:00,61.3,61.3,30.19,West,281,1.0,1.0,100,0.00,,,0.12,Wunderground v.1.15,2013-08-18 14:55:00,
2013-08-18 11:00:00,61.5,61.5,30.19,West,281,1.0,1.0,100,0.00,,,0.12,Wunderground v.1.15,2013-08-18 15:00:00,
2013-08-18 11:06:00,61.4,61.0,30.20,NNW,329,1.0,5.0,100,0.00,,,0.12,weatherlink.com 1.10,2013-08-18 15:06:00,
2013-08-18 11:15:00,61.6,61.6,30.21,North,360,2.0,2.0,100,0.00,,,0.12,Wunderground v.1.15,2013-08-18 15:15:00,
2013-08-18 11:20:00,61.4,61.0,30.21,NNW,342,1.0,5.0,100,0.00,,,0.12,weatherlink.com 1.10,2013-08-18 15:20:00,
2013-08-18 11:30:00,61.2,61.2,30.21,WSW,254,2.0,3.0,100,0.00,,,0.12,Wunderground v.1.15,2013-08-18 15:30:00,
2013-08-18 11:35:00,61.3,61.3,30.20,ENE,70,2.0,3.0,100,0.00,,,0.12,Wunderground v.1.15,2013-08-18 15:35:00,
2013-08-18 11:40:00,61.4,61.4,30.20,ENE,70,1.0,1.0,100,0.00,,,0.12,Wunderground v.1.15,2013-08-18 15:40:00,
2013-08-18 11:50:00,61.6,62.0,30.20,NNE,29,0.0,3.0,100,0.00,,,0.12,weatherlink.com 1.10,2013-08-18 15:50:00,
2013-08-18 12:00:00,61.6,61.6,30.19,NNE,29,0.0,0.0,100,0.00,,,0.12,Wunderground v.1.15,2013-08-18 16:00:00,
2013-08-18 12:06:00,62.0,62.0,30.19,NE,42,0.0,3.0,100,0.00,,,0.12,weatherlink.com 1.10,2013-08-18 16:06:00,
2013-08-18 12:15:00,62.3,62.3,30.19,NE,42,0.0,1.0,100,0.00,,,0.12,Wunderground v.1.15,2013-08-18 16:15:00,
2013-08-18 12:20:00,62.7,63.0,30.19,NE,42,1.0,2.0,100,0.00,,,0.12,weatherlink.com 1.10,2013-08-18 16:20:00,
2013-08-18 12:25:00,62.7,62.7,30.19,NE,42,0.0,0.0,100,0.00,,,0.12,Wunderground v.1.15,2013-08-18 16:25:00,
2013-08-18 12:35:00,63.4,63.4,30.19,NW,306,0.0,2.0,100,0.00,,,0.12,Wunderground v.1.15,2013-08-18 16:35:00,
2013-08-18 12:40:00,63.2,63.2,30.19,WNW,300,1.0,2.0,100,0.00,,,0.12,Wunderground v.1.15,2013-08-18 16:40:00,
2013-08-18 12:45:00,63.2,63.2,30.19,WNW,300,1.0,2.0,100,0.00,,,0.12,Wunderground v.1.15,2013-08-18 16:45:00,
2013-08-18 12:50:00,63.0,63.0,30.19,WNW,300,1.0,1.0,100,0.00,,,0.12,Wunderground v.1.15,2013-08-18 16:50:00,
2013-08-18 13:00:00,62.8,62.8,30.19,WNW,300,0.0,1.0,100,0.00,,,0.12,Wunderground v.1.15,2013-08-18 17:00:00,
2013-08-18 13:07:00,63.1,63.0,30.19,NW,324,1.0,3.0,100,0.00,,,0.12,weatherlink.com 1.10,2013-08-18 17:07:00,
2013-08-18 13:15:00,63.5,63.5,30.19,WNW,288,1.0,1.0,100,0.00,,,0.12,Wunderground v.1.15,2013-08-18 17:15:00,
2013-08-18 13:20:00,63.9,63.9,30.19,WNW,286,1.0,1.0,100,0.00,,,0.12,Wunderground v.1.15,2013-08-18 17:20:00,
2013-08-18 13:30:00,64.0,64.0,30.18,West,269,2.0,3.0,100,0.00,,,0.12,Wunderground v.1.15,2013-08-18 17:30:00,
2013-08-18 13:36:00,64.2,64.0,30.18,North,360,1.0,5.0,100,0.00,,,0.12,weatherlink.com 1.10,2013-08-18 17:36:00,
2013-08-18 13:45:00,64.2,64.2,30.18,NW,319,0.0,1.0,100,0.00,,,0.12,Wunderground v.1.15,2013-08-18 17:45:00,
2013-08-18 13:50:00,64.0,63.7,30.18,NNW,333,1.0,1.0,99,0.00,,,0.12,Wunderground v.1.15,2013-08-18 17:50:00,
2013-08-18 13:55:00,63.9,63.6,30.17,NNW,333,1.0,1.0,99,0.00,,,0.12,Wunderground v.1.15,2013-08-18 17:55:00,
2013-08-18 14:00:00,64.0,63.7,30.17,NNW,333,0.0,0.0,99,0.00,,,0.12,Wunderground v.1.15,2013-08-18 18:00:00,
2013-08-18 14:07:00,64.3,64.0,30.17,NNW,333,0.0,3.0,99,0.00,,,0.12,weatherlink.com 1.10,2013-08-18 18:07:00,
2013-08-18 14:15:00,64.7,64.1,30.17,NNW,333,0.0,0.0,98,0.00,,,0.12,Wunderground v.1.15,2013-08-18 18:15:00,
2013-08-18 14:20:00,65.1,64.5,30.17,NNW,333,0.0,0.0,98,0.00,,,0.12,Wunderground v.1.15,2013-08-18 18:20:00,
2013-08-18 14:30:00,64.9,63.4,30.17,NNW,333,0.0,1.0,95,0.00,,,0.12,Wunderground v.1.15,2013-08-18 18:30:00,
2013-08-18 14:35:00,64.8,63.0,30.17,NNW,333,0.0,1.0,94,0.00,,,0.12,Wunderground v.1.15,2013-08-18 18:35:00,
2013-08-18 14:40:00,65.0,63.8,30.17,NNW,333,0.0,0.0,96,0.00,,,0.12,Wunderground v.1.15,2013-08-18 18:40:00,
2013-08-18 14:50:00,65.1,63.9,30.17,WNW,290,0.0,1.0,96,0.00,,,0.13,Wunderground v.1.15,2013-08-18 18:50:00,
2013-08-18 14:55:00,64.8,63.0,30.16,WNW,290,1.0,1.0,94,0.04,,,0.14,Wunderground v.1.15,2013-08-18 18:55:00,
2013-08-18 15:00:00,64.4,62.6,30.17,WNW,290,1.0,1.0,94,0.04,,,0.14,Wunderground v.1.15,2013-08-18 19:00:00,
2013-08-18 15:07:00,64.1,63.0,30.16,WNW,290,0.0,2.0,95,0.03,,,0.15,weatherlink.com 1.10,2013-08-18 19:07:00,
2013-08-18 15:15:00,63.9,62.7,30.16,NE,43,0.0,1.0,96,0.05,,,0.15,Wunderground v.1.15,2013-08-18 19:15:00,
2013-08-18 15:20:00,64.2,63.3,30.15,NE,43,0.0,0.0,97,0.04,,,0.15,Wunderground v.1.15,2013-08-18 19:20:00,
2013-08-18 15:30:00,64.5,63.6,30.15,NE,43,0.0,0.0,97,0.00,,,0.15,Wunderground v.1.15,2013-08-18 19:30:00,
2013-08-18 15:38:00,64.6,64.0,30.15,NE,43,1.0,2.0,97,0.03,,,0.15,weatherlink.com 1.10,2013-08-18 19:38:00,
2013-08-18 15:45:00,64.8,63.9,30.15,NE,43,0.0,0.0,97,0.00,,,0.15,Wunderground v.1.15,2013-08-18 19:45:00,
2013-08-18 15:50:00,65.0,64.1,30.15,NE,42,0.0,0.0,97,0.00,,,0.15,Wunderground v.1.15,2013-08-18 19:50:00,
2013-08-18 15:55:00,65.0,64.1,30.14,NE,42,0.0,0.0,97,0.00,,,0.15,Wunderground v.1.15,2013-08-18 19:55:00,
2013-08-18 16:00:00,65.2,64.3,30.14,NE,38,1.0,1.0,97,0.00,,,0.15,Wunderground v.1.15,2013-08-18 20:00:00,
2013-08-18 16:08:00,65.2,64.0,30.14,NE,49,0.0,4.0,97,0.00,,,0.15,weatherlink.com 1.10,2013-08-18 20:08:00,
2013-08-18 16:15:00,65.1,63.9,30.14,NE,54,1.0,1.0,96,0.00,,,0.15,Wunderground v.1.15,2013-08-18 20:15:00,
2013-08-18 16:20:00,64.9,63.7,30.14,NE,51,1.0,1.0,96,0.00,,,0.15,Wunderground v.1.15,2013-08-18 20:20:00,
2013-08-18 16:25:00,64.8,63.6,30.14,NE,51,1.0,1.0,96,0.00,,,0.15,Wunderground v.1.15,2013-08-18 20:25:00,
2013-08-18 16:30:00,64.7,63.8,30.14,NNW,329,1.0,1.0,97,0.00,,,0.15,Wunderground v.1.15,2013-08-18 20:30:00,
2013-08-18 16:38:00,64.5,64.0,30.13,NNW,342,0.0,2.0,97,0.00,,,0.15,weatherlink.com 1.10,2013-08-18 20:38:00,
2013-08-18 16:45:00,64.2,63.3,30.13,NW,317,1.0,1.0,97,0.00,,,0.15,Wunderground v.1.15,2013-08-18 20:45:00,
2013-08-18 16:50:00,64.1,63.2,30.13,WNW,284,1.0,2.0,97,0.00,,,0.15,Wunderground v.1.15,2013-08-18 20:50:00,
2013-08-18 16:55:00,64.0,63.1,30.13,NNW,344,1.0,2.0,97,0.00,,,0.15,Wunderground v.1.15,2013-08-18 20:55:00,
2013-08-18 17:05:00,63.5,62.6,30.13,WSW,242,2.0,3.0,97,0.00,,,0.15,Wunderground v.1.15,2013-08-18 21:05:00,
2013-08-18 17:10:00,63.2,62.3,30.14,NE,40,2.0,3.0,97,0.00,,,0.15,Wunderground v.1.15,2013-08-18 21:10:00,
2013-08-18 17:20:00,62.8,62.2,30.14,WNW,294,3.0,3.0,98,0.00,,,0.15,Wunderground v.1.15,2013-08-18 21:20:00,
2013-08-18 17:25:00,62.6,62.0,30.14,West,266,4.0,6.0,98,0.00,,,0.15,Wunderground v.1.15,2013-08-18 21:25:00,
2013-08-18 17:35:00,62.5,62.2,30.14,WNW,288,4.0,5.0,99,0.00,,,0.15,Wunderground v.1.15,2013-08-18 21:35:00,
2013-08-18 17:40:00,62.3,62.0,30.14,NNE,15,4.0,4.0,99,0.00,,,0.15,Wunderground v.1.15,2013-08-18 21:40:00,
2013-08-18 17:45:00,62.2,61.9,30.14,WSW,240,3.0,6.0,99,0.00,,,0.15,Wunderground v.1.15,2013-08-18 21:45:00,
2013-08-18 17:50:00,62.3,62.0,30.14,WSW,252,3.0,5.0,99,0.00,,,0.15,Wunderground v.1.15,2013-08-18 21:50:00,
2013-08-18 18:00:00,62.1,61.5,30.14,WSW,258,3.0,3.0,98,0.00,,,0.15,Wunderground v.1.15,2013-08-18 22:00:00,
2013-08-18 18:05:00,62.3,61.7,30.14,NNW,331,3.0,3.0,98,0.00,,,0.15,Wunderground v.1.15,2013-08-18 22:05:00,
2013-08-18 18:10:00,62.2,61.6,30.13,West,267,3.0,3.0,98,0.00,,,0.15,Wunderground v.1.15,2013-08-18 22:10:00,
2013-08-18 18:20:00,62.3,61.4,30.14,West,269,1.0,1.0,97,0.00,,,0.15,Wunderground v.1.15,2013-08-18 22:20:00,
2013-08-18 18:25:00,62.5,61.6,30.14,West,268,1.0,1.0,97,0.00,,,0.15,Wunderground v.1.15,2013-08-18 22:25:00,
2013-08-18 18:35:00,62.2,60.8,30.14,WSW,242,1.0,1.0,95,0.00,,,0.15,Wunderground v.1.15,2013-08-18 22:35:00,
2013-08-18 18:40:00,62.2,61.0,30.14,WSW,242,0.0,2.0,96,0.00,,,0.15,weatherlink.com 1.10,2013-08-18 22:40:00,
2013-08-18 18:50:00,62.2,60.8,30.14,SW,233,1.0,1.0,95,0.00,,,0.15,Wunderground v.1.15,2013-08-18 22:50:00,
2013-08-18 18:55:00,62.2,60.8,30.13,SW,234,1.0,2.0,95,0.00,,,0.15,Wunderground v.1.15,2013-08-18 22:55:00,
2013-08-18 19:00:00,62.2,60.5,30.13,SW,234,1.0,1.0,94,0.00,,,0.15,Wunderground v.1.15,2013-08-18 23:00:00,
2013-08-18 19:10:00,62.2,61.0,30.14,SW,234,0.0,2.0,94,0.00,,,0.15,weatherlink.com 1.10,2013-08-18 23:10:00,
2013-08-18 19:20:00,62.4,61.2,30.14,SW,234,0.0,0.0,96,0.00,,,0.15,Wunderground v.1.15,2013-08-18 23:20:00,
2013-08-18 19:25:00,62.2,60.5,30.14,SW,234,0.0,1.0,94,0.00,,,0.15,Wunderground v.1.15,2013-08-18 23:25:00,
2013-08-18 19:30:00,62.3,60.2,30.14,SW,234,1.0,1.0,93,0.00,,,0.15,Wunderground v.1.15,2013-08-18 23:30:00,
2013-08-18 19:40:00,62.3,60.6,30.15,SW,234,1.0,1.0,94,0.00,,,0.15,Wunderground v.1.15,2013-08-18 23:40:00,
2013-08-18 19:50:00,62.2,60.5,30.15,SW,234,0.0,0.0,94,0.00,,,0.15,Wunderground v.1.15,2013-08-18 23:50:00,
2013-08-18 19:55:00,62.1,59.7,30.15,SW,234,0.0,2.0,92,0.00,,,0.15,Wunderground v.1.15,2013-08-18 23:55:00,
2013-08-18 20:00:00,62.3,59.9,30.16,SW,236,1.0,1.0,92,0.00,,,0.15,Wunderground v.1.15,2013-08-19 00:00:00,
2013-08-18 20:10:00,62.2,60.5,30.16,SW,236,0.0,0.0,94,0.00,,,0.15,Wunderground v.1.15,2013-08-19 00:10:00,
2013-08-18 20:20:00,62.0,60.3,30.16,SW,236,0.0,0.0,94,0.00,,,0.15,Wunderground v.1.15,2013-08-19 00:20:00,
2013-08-18 20:25:00,62.0,60.3,30.16,SW,236,0.0,0.0,94,0.00,,,0.15,Wunderground v.1.15,2013-08-19 00:25:00,
2013-08-18 20:35:00,61.8,59.5,30.16,SW,236,0.0,1.0,92,0.00,,,0.15,Wunderground v.1.15,2013-08-19 00:35:00,
2013-08-18 20:40:00,62.0,59.3,30.17,WSW,240,0.0,1.0,91,0.00,,,0.15,Wunderground v.1.15,2013-08-19 00:40:00,
2013-08-18 20:45:00,62.3,59.6,30.16,WSW,240,1.0,1.0,91,0.00,,,0.15,Wunderground v.1.15,2013-08-19 00:45:00,
2013-08-18 20:55:00,62.4,59.4,30.17,WSW,240,0.0,1.0,90,0.00,,,0.15,Wunderground v.1.15,2013-08-19 00:55:00,
2013-08-18 21:00:00,62.5,59.8,30.16,WSW,241,1.0,2.0,91,0.00,,,0.15,Wunderground v.1.15,2013-08-19 01:00:00,
2013-08-18 21:05:00,62.5,59.8,30.16,WSW,241,2.0,2.0,91,0.00,,,0.15,Wunderground v.1.15,2013-08-19 01:05:00,
2013-08-18 21:11:00,62.5,60.0,30.16,WSW,241,0.0,3.0,90,0.00,,,0.15,weatherlink.com 1.10,2013-08-19 01:11:00,
2013-08-18 21:26:00,62.6,60.0,30.17,WSW,241,0.0,2.0,90,0.00,,,0.15,weatherlink.com 1.10,2013-08-19 01:26:00,
2013-08-18 21:41:00,62.6,60.0,30.18,WSW,241,0.0,2.0,92,0.00,,,0.15,weatherlink.com 1.10,2013-08-19 01:41:00,
2013-08-18 21:56:00,62.3,61.0,30.18,WSW,241,0.0,1.0,96,0.00,,,0.15,weatherlink.com 1.10,2013-08-19 01:56:00,
2013-08-18 22:11:00,62.0,61.0,30.18,WSW,241,0.0,1.0,97,0.02,,,0.17,weatherlink.com 1.10,2013-08-19 02:11:00,
2013-08-18 22:26:00,61.7,61.0,30.18,WSW,241,0.0,1.0,97,0.03,,,0.18,weatherlink.com 1.10,2013-08-19 02:26:00,
2013-08-18 22:41:00,61.6,61.0,30.18,WSW,241,0.0,0.0,98,0.03,,,0.18,weatherlink.com 1.10,2013-08-19 02:41:00,
2013-08-18 22:56:00,61.5,61.0,30.17,WSW,241,0.0,0.0,98,0.03,,,0.19,weatherlink.com 1.10,2013-08-19 02:56:00,
2013-08-18 23:11:00,61.4,61.0,30.17,WSW,241,0.0,1.0,98,0.03,,,0.20,weatherlink.com 1.10,2013-08-19 03:11:00,
2013-08-18 23:26:00,61.3,61.0,30.18,SSW,204,0.0,1.0,98,0.02,,,0.20,weatherlink.com 1.10,2013-08-19 03:26:00,
2013-08-18 23:41:00,61.3,61.0,30.18,SSW,204,0.0,1.0,99,0.02,,,0.20,weatherlink.com 1.10,2013-08-19 03:41:00,
2013-08-18 23:56:00,61.2,61.0,30.18,SSW,204,0.0,0.0,99,0.01,,,0.20,weatherlink.com 1.10,2013-08-19 03:56:00,